Wind_Speed
24 24 24 25 25 25 25 25 25 25 25 25 25 24 24 23 23 22 22 23 23 23 23 23 23 23 23 22 22 22 21 21 22 21 22 22 22 22 23 23 22 22 22
26 26 26 26 26 26 26 26 26 26 25 25 25 25 25 25 24 23 23 24 24 24 24 24 24 24 24 25 24 24 24 23 23 22 22 23 23 23 23 23 23 23 22
27 27 27 27 27 27 27 27 27 26 26 25 25 25 25 25 25 25 25 24 24 24 24 24 24 24 24 25 25 25 26 26 25 25 23 23 23 23 24 24 24 23 23
27 27 27 27 27 27 28 27 27 26 25 26 26 26 25 26 26 26 26 25 25 25 25 26 25 25 24 25 25 26 26 27 27 27 26 25 23 24 25 24 24 24 24
27 27 27 27 27 27 27 28 28 27 27 26 26 26 26 26 26 26 27 27 26 26 26 26 25 25 25 25 26 27 27 27 27 27 26 26 26 25 25 25 25 25 24
27 27 27 27 27 27 28 28 28 28 28 28 27 27 27 27 27 27 28 27 27 27 27 27 26 26 26 25 26 27 27 28 27 27 27 26 27 27 26 26 25 25 25
27 27 27 27 27 27 28 28 28 29 29 28 28 27 27 27 28 28 28 29 28 27 27 27 27 27 27 26 26 27 27 28 28 28 28 27 27 27 27 27 26 25 25
27 27 27 27 27 27 28 28 28 28 29 28 28 28 28 28 28 28 28 29 29 28 28 28 28 27 27 27 27 27 27 27 28 28 28 27 27 27 27 28 28 27 26
27 27 27 27 27 27 28 28 27 27 28 28 29 29 29 28 29 29 29 29 29 29 29 28 28 28 28 27 27 28 27 28 28 29 28 28 27 27 27 27 28 28 27
27 28 28 28 28 28 28 28 28 28 29 29 30 30 30 30 30 30 30 30 29 29 29 29 28 28 28 28 28 28 28 28 29 30 30 29 29 28 27 27 27 27 27
29 29 29 29 29 28 28 28 28 28 29 29 30 30 31 31 31 31 31 30 30 29 29 29 29 29 28 29 29 28 28 29 29 29 30 29 29 28 28 28 28 27 27
29 29 29 29 29 29 29 29 29 28 28 29 30 30 31 31 31 31 31 31 30 30 30 29 29 29 28 29 29 28 29 29 29 28 28 28 29 29 28 28 28 28 28
29 29 29 29 29 29 29 29 29 29 29 30 30 30 30 31 31 31 31 30 30 29 29 29 29 29 28 28 28 28 29 29 29 29 28 28 28 28 28 29 29 29 28
30 30 30 30 29 29 29 29 30 30 30 30 30 30 29 29 29 29 30 29 29 28 28 28 28 28 28 27 27 27 28 28 28 28 28 28 28 28 28 28 29 29 29
30 30 30 30 30 30 29 29 30 30 31 31 31 30 29 28 28 28 29 29 29 28 26 26 26 27 27 27 27 27 27 27 28 27 27 28 27 27 27 28 28 29 29
30 30 30 29 29 29 29 30 30 31 31 30 30 29 28 28 27 28 28 28 27 26 26 26 26 26 27 27 27 27 28 28 28 27 27 27 27 27 26 26 27 27 28
29 30 29 29 29 29 29 30 30 30 30 30 30 29 29 28 27 27 27 27 26 26 25 25 25 25 25 26 26 26 27 27 27 26 25 25 25 25 25 26 26 26 27
29 29 29 29 29 29 29 30 30 29 30 30 29 29 27 27 26 26 26 26 25 25 25 24 24 24 25 25 25 26 26 27 26 25 25 25 25 25 25 25 26 26 26
29 29 29 29 29 29 29 29 29 29 29 29 28 27 26 25 25 25 25 25 24 24 24 24 24 25 25 24 25 25 25 26 26 26 26 26 26 25 25 25 25 25 25
29 28 28 28 28 28 29 29 28 28 28 27 27 26 25 24 24 24 24 24 23 22 23 23 24 24 24 24 24 24 24 24 25 26 26 26 25 25 24 24 24 24 24
29 28 27 27 27 28 28 28 27 27 27 26 26 25 25 24 23 23 23 23 22 22 22 23 24 24 23 23 24 24 24 23 24 25 25 24 24 24 24 24 24 24 24
28 27 27 26 27 27 27 27 27 27 26 26 25 25 24 24 23 23 22 22 21 21 22 23 23 23 22 22 23 23 24 24 24 24 24 24 24 25 25 25 24 24 24
27 26 25 25 26 27 27 27 27 27 27 26 25 24 24 24 24 23 22 21 22 22 22 22 22 21 21 22 23 23 24 24 24 24 24 24 24 24 24 24 24 24 25
26 25 24 24 25 26 26 26 27 26 26 25 25 24 24 23 23 23 22 22 22 23 23 22 21 21 21 21 22 23 24 24 23 23 23 23 23 23 24 24 24 23 24
25 24 23 23 23 24 25 25 26 25 25 24 24 24 24 24 24 23 23 23 23 23 22 21 21 22 22 22 22 22 22 22 22 22 23 23 23 23 23 24 24 24 24
24 24 24 24 24 24 24 24 24 24 24 23 23 23 23 23 23 23 23 23 23 23 22 22 22 22 22 22 23 23 22 21 21 21 21 22 22 22 22 23 23 23 23
Wind_Direction
278 277 277 279 280 281 281 280 281 282 283 284 286 286 285 284 281 279 277 277 277 276 275 274 275 276 275 273 272 271 269 267 266 266 269 270 271 269 269 269 270 269 268
278 277 276 278 280 280 280 280 280 281 282 282 284 285 284 283 281 281 279 278 277 277 277 276 275 275 273 272 271 271 269 268 268 268 270 269 270 270 270 270 269 269 268
279 277 277 278 279 280 280 280 280 281 281 282 283 285 284 282 281 281 280 278 277 277 277 277 276 275 274 272 270 271 271 271 269 268 271 270 271 270 269 268 268 267 266
280 278 278 279 280 280 279 280 280 280 281 282 283 284 283 281 280 279 278 277 277 278 277 276 275 274 273 272 271 271 272 271 270 268 270 270 270 269 269 269 268 267 265
282 281 280 281 280 280 279 278 279 280 281 282 283 284 283 282 280 279 279 277 276 277 278 277 275 274 273 273 272 271 272 271 269 269 270 271 269 269 269 268 268 266 265
284 283 283 282 282 282 280 279 279 279 280 281 282 283 281 281 281 280 278 277 277 277 277 277 276 275 274 273 272 272 273 272 270 269 269 271 270 269 268 268 267 265 264
284 283 282 282 282 282 282 281 281 279 279 279 280 280 280 280 280 279 278 277 277 276 277 277 276 276 275 274 272 272 273 272 270 268 268 270 270 269 269 268 266 266 264
285 284 283 283 283 282 281 282 282 280 278 278 278 278 278 278 279 280 279 279 278 277 276 276 275 275 274 274 273 272 273 271 268 267 268 268 269 268 267 268 266 265 265
285 285 284 283 283 283 283 282 281 279 277 278 279 278 278 278 279 280 279 277 277 277 276 275 274 273 273 273 272 271 271 271 268 266 267 267 268 268 267 266 266 265 264
285 284 285 285 284 283 283 281 279 278 279 279 279 280 280 279 279 279 279 278 277 277 276 276 275 273 273 273 272 270 270 270 270 266 266 267 266 267 265 264 265 264 263
285 283 283 283 283 283 282 281 280 280 280 281 283 283 282 280 280 280 280 278 277 277 276 275 274 273 272 273 271 270 270 270 269 268 266 266 266 266 265 262 263 263 262
284 282 282 283 283 283 283 282 282 282 282 284 285 285 283 281 280 279 278 278 277 276 276 275 274 273 273 272 271 269 269 269 269 268 266 265 265 265 263 261 261 259 260
285 283 284 284 284 283 283 283 282 282 283 284 286 286 285 282 281 280 279 280 278 276 275 274 273 272 271 270 269 268 268 269 269 268 266 264 264 265 263 262 261 259 258
285 285 284 284 284 283 281 282 283 282 283 283 285 286 285 283 282 280 281 281 280 277 274 272 272 271 270 270 269 267 268 269 270 268 266 265 264 265 264 263 262 260 260
286 286 286 284 283 282 282 284 284 284 284 284 285 285 284 284 283 281 281 282 281 278 274 271 270 269 268 268 267 266 267 269 269 268 265 267 265 265 264 263 263 261 261
286 286 286 284 283 283 283 284 285 285 286 286 287 285 284 285 284 282 281 281 280 277 274 272 271 270 268 267 267 266 267 269 270 269 268 267 265 264 263 262 262 262 261
285 286 286 284 283 283 284 284 285 285 286 287 287 285 284 284 284 282 279 278 277 276 274 273 273 271 268 268 267 267 268 268 268 269 268 267 267 265 263 261 262 262 260
286 287 286 285 284 283 284 284 284 284 285 287 286 284 283 283 283 282 279 276 275 274 274 274 273 271 269 270 269 269 270 269 268 267 267 266 266 267 265 262 262 261 259
288 288 287 286 284 284 285 286 286 285 286 287 285 282 281 282 282 282 279 277 276 274 273 273 272 270 269 270 271 271 271 271 269 268 268 266 265 266 266 263 260 259 258
289 289 288 286 285 287 286 286 286 286 287 286 284 282 280 281 282 281 279 277 275 273 273 272 271 269 269 269 270 269 270 271 269 269 267 266 265 264 262 260 258 258 258
290 289 287 285 285 287 286 285 286 287 286 285 284 283 282 281 281 281 280 278 275 274 273 272 270 269 268 268 269 269 268 268 268 267 266 266 264 262 262 260 259 258 259
290 287 286 286 286 287 287 287 287 287 286 285 283 282 281 280 279 278 279 276 276 275 273 272 271 270 270 268 268 268 267 267 266 265 265 265 263 264 263 260 259 258 259
287 287 289 288 287 287 287 287 288 287 286 284 282 281 280 280 279 277 277 277 276 275 274 273 271 272 271 268 267 268 268 268 267 265 264 264 264 264 264 262 260 260 259
285 286 288 290 291 290 288 287 288 288 285 282 280 280 280 279 278 276 276 275 275 276 275 272 271 272 269 268 268 269 269 268 265 263 263 264 265 266 265 263 261 260 259
284 284 286 289 292 292 290 289 288 287 285 282 280 279 278 277 274 273 273 274 273 274 273 272 273 270 269 269 269 269 270 268 265 263 263 264 265 266 265 264 261 260 261
285 284 285 287 289 291 292 292 289 287 283 281 280 278 275 274 274 273 273 273 272 271 272 273 273 272 270 269 268 268 268 267 265 262 261 263 264 266 266 265 263 262 264
Height
5786 5784 5783 5782 5781 5779 5777 5776 5774 5772 5771 5769 5767 5765 5764 5762 5761 5761 5760 5759 5759 5758 5757 5756 5756 5755 5755 5754 5754 5753 5753 5753 5753 5753 5753 5752 5752 5751 5751 5751 5750 5750 5750
5778 5777 5776 5775 5773 5772 5770 5768 5766 5765 5763 5761 5760 5758 5756 5755 5754 5754 5753 5752 5751 5751 5750 5749 5749 5748 5748 5747 5747 5746 5746 5746 5746 5746 5745 5745 5744 5744 5744 5744 5743 5743 5743
5770 5769 5768 5766 5765 5764 5762 5760 5759 5757 5755 5754 5752 5751 5749 5748 5747 5746 5746 5745 5744 5743 5743 5742 5741 5741 5740 5740 5740 5739 5739 5738 5738 5738 5738 5737 5737 5737 5737 5736 5736 5736 5736
5761 5760 5759 5758 5757 5755 5754 5752 5751 5749 5748 5746 5745 5743 5742 5741 5740 5739 5738 5737 5737 5736 5735 5735 5734 5733 5733 5733 5732 5732 5731 5731 5730 5730 5730 5730 5730 5729 5729 5729 5729 5729 5729
5753 5752 5751 5749 5748 5747 5745 5744 5742 5741 5740 5738 5737 5736 5734 5733 5732 5731 5730 5729 5729 5728 5727 5727 5726 5726 5725 5725 5725 5724 5724 5723 5723 5722 5722 5722 5722 5722 5722 5721 5721 5721 5722
5745 5743 5742 5740 5739 5738 5737 5735 5734 5733 5731 5730 5729 5728 5726 5725 5724 5723 5722 5721 5720 5720 5719 5719 5718 5718 5717 5717 5717 5716 5716 5715 5715 5714 5714 5714 5714 5713 5713 5713 5714 5714 5715
5736 5735 5733 5732 5730 5729 5728 5727 5725 5724 5723 5722 5721 5719 5718 5717 5716 5715 5713 5712 5712 5711 5711 5710 5710 5710 5709 5709 5708 5708 5707 5707 5706 5706 5705 5705 5705 5705 5705 5705 5706 5706 5706
5728 5726 5725 5723 5722 5720 5719 5718 5716 5715 5714 5713 5712 5711 5710 5709 5708 5706 5705 5704 5703 5702 5702 5701 5701 5701 5700 5700 5699 5699 5699 5698 5698 5697 5697 5697 5697 5697 5697 5697 5697 5698 5698
5720 5718 5716 5715 5713 5712 5710 5709 5707 5706 5705 5704 5703 5702 5700 5700 5698 5697 5696 5694 5694 5693 5692 5692 5692 5692 5692 5691 5690 5690 5689 5689 5688 5688 5687 5688 5688 5688 5688 5688 5688 5689 5690
5711 5710 5708 5706 5705 5703 5702 5700 5698 5697 5696 5695 5693 5692 5691 5690 5689 5687 5686 5685 5684 5684 5683 5682 5682 5682 5681 5681 5680 5680 5680 5679 5678 5678 5678 5678 5678 5678 5679 5679 5680 5680 5681
5702 5701 5700 5698 5696 5694 5693 5691 5689 5688 5687 5685 5684 5682 5681 5680 5679 5677 5676 5674 5674 5673 5672 5672 5672 5671 5671 5671 5670 5670 5669 5669 5669 5668 5669 5669 5669 5669 5670 5670 5671 5672 5672
5694 5692 5691 5689 5687 5685 5684 5682 5680 5679 5677 5676 5674 5672 5670 5669 5668 5667 5665 5664 5663 5662 5662 5661 5661 5661 5660 5660 5660 5659 5659 5659 5659 5659 5659 5660 5660 5660 5660 5661 5662 5662 5663
5684 5683 5681 5680 5678 5676 5674 5673 5671 5669 5668 5666 5665 5663 5661 5659 5657 5656 5655 5653 5652 5651 5651 5651 5650 5650 5650 5650 5650 5649 5649 5649 5650 5650 5650 5650 5650 5650 5651 5651 5652 5653 5654
5675 5673 5672 5671 5669 5667 5665 5663 5662 5660 5658 5657 5655 5653 5651 5649 5647 5646 5644 5643 5642 5641 5640 5640 5640 5639 5640 5640 5640 5640 5640 5640 5640 5640 5641 5641 5641 5641 5641 5642 5643 5643 5644
5666 5664 5662 5661 5659 5658 5656 5654 5652 5650 5648 5647 5645 5643 5641 5640 5638 5636 5634 5633 5632 5631 5630 5630 5630 5630 5630 5631 5631 5631 5631 5631 5631 5631 5631 5631 5632 5632 5632 5633 5634 5634 5635
5657 5655 5653 5651 5650 5648 5646 5645 5642 5641 5639 5636 5634 5633 5631 5630 5628 5627 5625 5624 5622 5622 5621 5621 5621 5621 5621 5622 5622 5622 5622 5622 5622 5622 5623 5623 5623 5623 5624 5624 5625 5625 5626
5647 5646 5644 5642 5640 5639 5637 5635 5633 5631 5628 5627 5625 5623 5622 5620 5619 5617 5616 5615 5614 5613 5612 5612 5612 5612 5612 5612 5613 5613 5613 5613 5613 5614 5614 5614 5615 5615 5615 5616 5616 5617 5617
5638 5636 5634 5632 5631 5629 5627 5625 5623 5621 5619 5617 5615 5614 5612 5610 5609 5608 5606 5605 5605 5604 5604 5604 5604 5604 5604 5604 5604 5605 5605 5605 5605 5606 5606 5606 5607 5607 5607 5607 5608 5608 5609
5629 5627 5625 5623 5621 5620 5618 5615 5613 5611 5609 5607 5605 5604 5603 5601 5600 5599 5598 5597 5597 5596 5596 5596 5596 5596 5596 5596 5596 5596 5597 5597 5597 5597 5598 5598 5598 5599 5599 5599 5599 5600 5601
5621 5619 5616 5614 5612 5610 5608 5606 5604 5602 5600 5598 5596 5595 5594 5592 5591 5590 5589 5589 5588 5588 5588 5588 5588 5588 5588 5588 5588 5588 5588 5589 5589 5589 5590 5590 5590 5590 5591 5591 5592 5593 5593
5612 5610 5608 5605 5604 5602 5600 5597 5595 5593 5592 5590 5588 5586 5585 5584 5584 5583 5582 5581 5581 5581 5581 5580 5580 5580 5580 5580 5580 5580 5581 5581 5581 5581 5582 5582 5582 5583 5583 5584 5584 5585 5585
5603 5601 5599 5597 5595 5593 5591 5589 5587 5585 5583 5581 5580 5578 5577 5576 5576 5575 5575 5574 5574 5573 5573 5573 5572 5572 5572 5572 5572 5572 5573 5573 5573 5573 5574 5574 5575 5575 5576 5576 5577 5577 5578
5594 5593 5591 5589 5587 5585 5583 5581 5579 5577 5575 5573 5572 5571 5570 5569 5568 5568 5567 5567 5567 5566 5566 5565 5565 5565 5565 5565 5565 5565 5565 5565 5566 5566 5566 5567 5567 5568 5568 5568 5569 5569 5570
5586 5585 5583 5581 5579 5577 5575 5573 5571 5569 5567 5565 5564 5563 5562 5561 5561 5560 5560 5560 5560 5559 5559 5559 5558 5558 5558 5558 5558 5558 5558 5558 5558 5558 5559 5559 5560 5560 5560 5560 5561 5561 5562
5578 5577 5576 5574 5572 5570 5568 5566 5563 5561 5559 5558 5556 5555 5554 5554 5553 5553 5553 5553 5553 5552 5552 5551 5551 5551 5551 5551 5551 5551 5551 5550 5551 5551 5552 5552 5552 5553 5553 5553 5553 5554 5554
5570 5569 5568 5567 5565 5563 5561 5558 5556 5554 5552 5550 5549 5548 5547 5547 5546 5546 5546 5545 5545 5545 5544 5544 5544 5543 5543 5543 5543 5543 5543 5544 5544 5544 5545 5545 5545 5545 5545 5546 5546 5546 5547